FW1241 Weather Reports


Display with metric or nautical units.
time (UTC)temp
F
wind
direction
speed
MPH
gust
MPH
rain 1hr
in
rain 24hr
in
rain mn
in
humidity
%
barometer
mb
20260508193104 85 111 0.0 3.0 0.00 0.00 0.00 52 1014.2
20260508192604 85 207 0.0 5.0 0.00 0.00 0.00 52 1014.2
20260508191603 84 196 1.0 5.0 0.00 0.00 0.00 53 1014.5
20260508185604 82 184 0.0 2.0 0.00 0.00 0.00 55 1014.8
20260508184604 81 277 1.0 3.0 0.00 0.00 0.00 56 1015.0
20260508184103 81 228 0.0 3.0 0.00 0.00 0.00 57 1014.9
20260508183603 82 307 1.0 2.0 0.00 0.00 0.00 56 1015.0
20260508183103 81 200 0.0 2.0 0.00 0.00 0.00 58 1015.1
20260508182603 81 208 0.0 2.0 0.00 0.00 0.00 57 1015.1
20260508182104 81 177 0.0 3.0 0.00 0.00 0.00 57 1015.2
20260508181604 81 180 1.0 3.0 0.00 0.00 0.00 58 1015.2
20260508181104 80 170 1.0 3.0 0.00 0.00 0.00 58 1015.3
20260508180604 81 280 1.0 3.0 0.00 0.00 0.00 57 1015.3
20260508174103 78 310 1.0 3.0 0.00 0.00 0.00 61 1015.4
20260508173604 77 255 1.0 5.0 0.00 0.00 0.00 62 1015.4
20260508173104 77 336 1.0 3.0 0.00 0.00 0.00 61 1015.5
20260508171104 76 209 0.0 3.0 0.00 0.00 0.00 62 1015.5
20260508170604 76 204 2.0 5.0 0.00 0.00 0.00 62 1015.6
20260508170104 76 127 1.0 2.0 0.00 0.00 0.00 62 1015.6
20260508165604 76 190 1.0 3.0 0.00 0.00 0.00 65 1015.5
20260508165104 76 179 1.0 3.0 0.00 0.00 0.00 64 1015.5
20260508163604 75 182 1.0 5.0 0.00 0.00 0.00 66 1015.6
20260508163104 74 179 2.0 3.0 0.00 0.00 0.00 66 1015.6
20260508162604 74 130 1.0 3.0 0.00 0.00 0.00 67 1015.7
20260508162103 74 173 1.0 3.0 0.00 0.00 0.00 68 1015.7
20260508161604 74 178 0.0 5.0 0.00 0.00 0.00 70 1015.7
20260508161103 73 158 0.0 3.0 0.00 0.00 0.00 71 1015.7
20260508160104 73 177 2.0 5.0 0.00 0.00 0.00 70 1015.8
20260508155603 72 138 1.0 3.0 0.00 0.00 0.00 72 1015.7
20260508154104 71 195 0.0 5.0 0.00 0.00 0.00 74 1015.7
20260508153104 70 195 1.0 5.0 0.00 0.00 0.00 75 1015.8
20260508152604 70 144 1.0 3.0 0.00 0.00 0.00 76 1015.7
20260508151604 69 187 1.0 5.0 0.00 0.00 0.00 77 1015.8
20260508151104 69 105 0.0 3.0 0.00 0.00 0.00 78 1015.8
20260508150604 68 119 0.0 1.0 0.00 0.00 0.00 79 1015.8
20260508150104 68 117 0.0 1.0 0.00 0.00 0.00 79 1015.7
20260508144105 66 103 0.0 2.0 0.00 0.00 0.00 84 1015.8
20260508143604 65 164 0.0 1.0 0.00 0.00 0.00 85 1015.8
20260508141104 61 182 0.0 1.0 0.00 0.00 0.00 91 1015.5
20260508140603 61 197 0.0 2.0 0.00 0.00 0.00 91 1015.4
20260508140104 60 166 0.0 1.0 0.00 0.00 0.00 91 1015.4
20260508135603 60 132 0.0 1.0 0.00 0.00 0.00 91 1015.3
20260508134604 59 145 0.0 0.0 0.00 0.00 0.00 90 1015.1
20260508134104 59 145 0.0 0.0 0.00 0.00 0.00 90 1015.1
20260508133604 59 145 0.0 0.0 0.00 0.00 0.00 90 1015.0
20260508133104 59 146 0.0 0.0 0.00 0.00 0.00 90 1015.0
20260508132603 59 146 0.0 0.0 0.00 0.00 0.00 90 1014.9
20260508131605 59 146 0.0 0.0 0.00 0.00 0.00 90 1014.9
20260508124603 60 146 0.0 0.0 0.00 0.00 0.00 90 1014.7
20260508124103 60 146 0.0 0.0 0.00 0.00 0.00 90 1014.7
20260508122104 60 146 0.0 0.0 0.00 0.00 0.00 89 1014.5
20260508121603 60 146 0.0 0.0 0.00 0.00 0.00 89 1014.6
20260508120104 61 146 0.0 0.0 0.00 0.00 0.00 89 1014.5
20260508114103 61 146 0.0 0.0 0.00 0.00 0.00 88 1014.3
20260508113104 61 146 0.0 0.0 0.00 0.00 0.00 88 1014.3
20260508112604 61 146 0.0 0.0 0.00 0.00 0.00 88 1014.2
20260508112104 61 146 0.0 0.0 0.00 0.00 0.00 88 1014.1
20260508111603 61 146 0.0 0.0 0.00 0.00 0.00 88 1014.1
20260508104604 62 146 0.0 0.0 0.00 0.00 0.00 87 1014.0
20260508103604 63 146 0.0 0.0 0.00 0.00 0.00 85 1014.0
20260508100603 63 148 0.0 0.0 0.00 0.00 0.00 87 1014.0
20260508100103 63 148 0.0 0.0 0.00 0.00 0.00 87 1014.0
20260508095604 63 148 0.0 0.0 0.00 0.00 0.00 87 1014.0
20260508094104 63 148 0.0 0.0 0.00 0.00 0.00 87 1014.0
20260508092104 64 96 0.0 0.0 0.00 0.00 0.00 85 1014.0
20260508091104 64 96 0.0 0.0 0.00 0.00 0.00 85 1014.0
20260508084604 64 96 0.0 0.0 0.00 0.00 0.00 83 1013.9
20260508084104 65 96 0.0 0.0 0.00 0.00 0.00 83 1014.0
20260508083604 65 96 0.0 0.0 0.00 0.00 0.00 83 1013.9
20260508082104 65 96 0.0 0.0 0.00 0.00 0.00 84 1013.9
20260508081604 65 95 0.0 0.0 0.00 0.00 0.00 84 1013.9
20260508081104 65 96 0.0 0.0 0.00 0.00 0.00 84 1014.0
20260508080604 65 89 0.0 0.0 0.00 0.00 0.00 84 1014.0
20260508075604 65 89 0.0 0.0 0.00 0.00 0.00 84 1014.0
20260508074104 66 89 0.0 0.0 0.00 0.00 0.00 83 1014.0
20260508073604 66 89 0.0 0.0 0.00 0.00 0.00 82 1013.9
20260508073103 67 89 0.0 0.0 0.00 0.00 0.00 82 1013.8
20260508072604 67 89 0.0 0.0 0.00 0.00 0.00 81 1013.8
20260508072104 67 89 0.0 0.0 0.00 0.00 0.00 81 1013.8
20260508064604 69 278 0.0 0.0 0.00 0.00 0.00 79 1013.5
20260508064104 69 278 0.0 0.0 0.00 0.00 0.00 78 1013.6
20260508062604 70 278 0.0 0.0 0.00 0.00 0.00 77 1013.5
20260508062104 70 278 0.0 0.0 0.00 0.00 0.00 76 1013.5
20260508061604 71 278 0.0 0.0 0.00 0.00 0.00 75 1013.6
20260508061104 71 278 0.0 0.0 0.00 0.00 0.00 75 1013.6
20260508060604 71 278 0.0 0.0 0.00 0.00 0.00 74 1013.5
20260508055104 72 278 0.0 0.0 0.00 0.00 0.00 73 1013.5
20260508054604 72 277 0.0 0.0 0.00 0.00 0.00 73 1013.6
20260508054104 72 277 0.0 0.0 0.00 0.00 0.00 71 1013.6
20260508053603 72 277 0.0 0.0 0.00 0.00 0.00 70 1013.6
20260508053104 72 277 0.0 0.0 0.00 0.00 0.00 69 1013.5
20260508051603 73 277 0.0 0.0 0.00 0.00 0.00 67 1013.5
20260508050104 73 277 0.0 0.0 0.00 0.00 0.00 68 1013.5
20260508045603 73 277 0.0 0.0 0.00 0.00 0.00 68 1013.6
20260508044103 73 277 0.0 0.0 0.00 0.00 0.00 66 1013.5
20260508043604 73 277 0.0 0.0 0.00 0.00 0.00 67 1013.4
20260508042604 73 277 0.0 0.0 0.00 0.00 0.00 65 1013.3
20260508040604 74 277 0.0 0.0 0.00 0.00 0.00 64 1013.1
20260508035104 75 277 0.0 0.0 0.00 0.00 0.00 62 1012.9
20260508034103 76 277 0.0 0.0 0.00 0.00 0.00 60 1012.8
20260508033604 76 277 0.0 0.0 0.00 0.00 0.00 59 1012.8
20260508033104 77 277 0.0 0.0 0.00 0.00 0.00 58 1012.7
20260508031604 78 277 0.0 0.0 0.00 0.00 0.00 56 1012.4
20260508030603 79 277 0.0 0.0 0.00 0.00 0.00 54 1012.3
20260508025604 80 278 0.0 1.0 0.00 0.00 0.00 53 1012.2
20260508024603 81 280 0.0 0.0 0.00 0.00 0.00 51 1012.1
20260508024104 81 280 0.0 0.0 0.00 0.00 0.00 50 1012.1
20260508023603 82 267 0.0 1.0 0.00 0.00 0.00 50 1012.0
20260508023103 82 263 0.0 1.0 0.00 0.00 0.00 49 1012.0
20260508022603 83 259 0.0 2.0 0.00 0.00 0.00 48 1012.0
20260508021604 83 328 0.0 2.0 0.00 0.00 0.00 46 1011.9
20260508021103 84 307 0.0 1.0 0.00 0.00 0.00 45 1011.9
20260508015603 85 301 0.0 2.0 0.00 0.00 0.00 43 1011.9
20260508013604 87 305 1.0 3.0 0.00 0.00 0.00 40 1011.9
20260508013104 87 300 0.0 2.0 0.00 0.00 0.00 41 1011.9
20260508012604 87 304 1.0 3.0 0.00 0.00 0.00 40 1011.9
20260508011604 88 296 1.0 3.0 0.00 0.00 0.00 40 1011.9
20260508010604 88 294 1.0 6.0 0.00 0.00 0.00 41 1011.9
20260508005103 88 285 1.0 3.0 0.00 0.00 0.00 39 1012.0
20260508004104 88 302 1.0 3.0 0.00 0.00 0.00 39 1012.0
20260508003604 88 321 1.0 3.0 0.00 0.00 0.00 39 1012.1
20260508003104 88 315 0.0 3.0 0.00 0.00 0.00 39 1012.1
20260508002603 88 301 1.0 3.0 0.00 0.00 0.00 40 1012.2
20260508002104 88 301 1.0 3.0 0.00 0.00 0.00 40 1012.3
20260508000104 88 314 1.0 3.0 0.00 0.00 0.00 40 1012.4
20260507235104 88 296 0.0 3.0 0.00 0.00 0.00 39 1012.4
20260507232604 87 296 2.0 6.0 0.00 0.00 0.00 40 1012.5
20260507231104 87 315 1.0 3.0 0.00 0.00 0.00 41 1012.6
20260507230604 87 321 1.0 3.0 0.00 0.00 0.00 40 1012.7
20260507225604 87 310 2.0 5.0 0.00 0.00 0.00 40 1012.8
20260507225104 87 321 2.0 3.0 0.00 0.00 0.00 39 1012.9
20260507224103 87 2 1.0 3.0 0.00 0.00 0.00 39 1013.0
20260507223604 86 309 1.0 6.0 0.00 0.00 0.00 41 1013.0
20260507222603 86 297 2.0 3.0 0.00 0.00 0.00 42 1013.1
20260507221103 86 288 0.0 3.0 0.00 0.00 0.00 41 1013.4
20260507220104 86 274 1.0 3.0 0.00 0.00 0.00 40 1013.5
20260507215603 86 36 1.0 3.0 0.00 0.00 0.00 41 1013.6
20260507215104 86 304 2.0 6.0 0.00 0.00 0.00 41 1013.7
20260507212604 86 304 1.0 3.0 0.00 0.00 0.00 40 1014.0
20260507212104 86 318 0.0 3.0 0.00 0.00 0.00 42 1014.1
20260507211103 85 305 1.0 3.0 0.00 0.00 0.00 41 1014.3
20260507210604 85 177 0.0 2.0 0.00 0.00 0.00 42 1014.4
20260507205604 85 272 0.0 3.0 0.00 0.00 0.00 43 1014.6
20260507205104 85 299 1.0 3.0 0.00 0.00 0.00 41 1014.7
20260507204603 85 291 0.0 3.0 0.00 0.00 0.00 43 1014.7
20260507202604 83 19 0.0 2.0 0.00 0.00 0.00 43 1014.9
20260507202104 83 312 0.0 5.0 0.00 0.00 0.00 42 1015.0
20260507201604 83 280 1.0 5.0 0.00 0.00 0.00 43 1015.0
20260507201103 84 296 1.0 3.0 0.00 0.00 0.00 44 1015.1
20260507200604 84 312 1.0 3.0 0.00 0.00 0.00 44 1015.2
20260507200104 84 308 0.0 2.0 0.00 0.00 0.00 44 1015.3